User: anonymous   Login
Location: Tyler Bend Campground
(35.9875°N, 92.7606°W)
Time: 08:00:36
(UTC-05:00)
Language:

CZ-2C R/B - Orbit

View from above orbital plane
View from above orbital plane
View from above satellite
View from above satellite

Ground track
Ground track

The orbit data is extracted from the following two-line orbital elements,

1 36089U 09061B   16126.08798574  .00000113  00000-0  39735-4 0  9992
2 36089  98.0530 140.1023 0081227 221.8423 174.4708 14.49570814342582
Epoch (UTC): 05 May 2016 02:06:41
Eccentricity: 0.0081227
inclination: 98.0530°
perigee height: 669 km
apogee height: 785 km
right ascension of ascending node: 140.1023°
argument of perigee: 221.8423°
revolutions per day: 14.49570814
mean anomaly at epoch: 174.4708°
orbit number at epoch: 34258

The dashed part of the orbit path shows where the satellite is in the earth's shadow,  

DLR